Change the Weather History Date:

Thursday, June 27, 2013

  Actual Average Record
Temperature  
Mean Temperature 82 °F 71 °F  
Max Temperature 97 °F 86 °F 102 °F (1990)
Min Temperature 67 °F 56 °F 43 °F (1985)
Degree Days  
Heating Degree Days 0 1  
Month to date heating degree days 29 60  
Since 1 June heating degree days 29 60  
Since 1 July heating degree days 6084 6056  
Cooling Degree Days 17 7  
Month to date cooling degree days 191 110  
Year to date cooling degree days 233 132  
Since 1 June cooling degree days 191 110  
Growing Degree Days 32 (Base 50)    
Moisture  
Dew Point 39 °F    
Average Humidity 25    
Maximum Humidity 38    
Minimum Humidity 11    
Precipitation  
Precipitation 0.00 in 0.06 in 0.51 in (2014)
Month to date precipitation 0.75 1.81  
Year to date precipitation 5.99 7.34  
Snow  
Snow 0.00 in - - ()
Month to date snowfall 0  
Since 1 June snowfall 0  
Since 1 July snowfall 78.4  
Snow Depth 0.00 in    
Sea Level Pressure  
Sea Level Pressure 29.95 in    
Wind  
Wind Speed 11 mph (ENE)    
Max Wind Speed 21 mph    
Max Gust Speed 32 mph    
Visibility 10 miles    
Events      
T = Trace of Precipitation, MM = Missing Value Source: NWS Daily Summary

Daily Weather History Graph

Daily Weather History Graph

Search for Another Location

Airport or City:

Trip Planner

Search our weather history database for the weather conditions in past years. The results will help you decide how hot, cold, wet, or windy it might be!

Date:

Astronomy

Jun. 27, 2013 Rise Set
Actual Time 5:32 AM MDT 8:31 PM MDT
Civil Twilight 4:59 AM MDT 9:03 PM MDT
Nautical Twilight 4:18 AM MDT 9:45 PM MDT
Astronomical Twilight 3:30 AM MDT 10:33 PM MDT
Moon 11:30 PM MDT 10:35 AM MDT
Length of Visible Light 16h 04m
Length of Day
14h 58m
Waning Gibbous, 76% of the Moon is Illuminated
Jun 27
Waning Gibbous
Jun 29
Last Quarter
Jul 8
New
Jul 15
First Quarter
Jul 22
Full

Hourly Weather History & Observations

Time (MDT) Temp. Dew Point Humidity Pressure Visibility Wind Dir Wind Speed Gust Speed Precip Events Conditions
12:53 AM 73.9 °F 39.0 °F 28% 29.85 in 10.0 mi SSW 11.5 mph - N/A   Scattered Clouds
1:53 AM 73.0 °F 39.0 °F 29% 29.85 in 10.0 mi SW 11.5 mph - N/A   Scattered Clouds
2:53 AM 72.0 °F 39.0 °F 30% 29.86 in 10.0 mi WSW 8.1 mph - N/A   Partly Cloudy
3:53 AM 70.0 °F 39.0 °F 32% 29.88 in 10.0 mi WSW 8.1 mph - N/A   Partly Cloudy
4:53 AM 68.0 °F 41.0 °F 37% 29.91 in 10.0 mi WSW 5.8 mph - N/A   Partly Cloudy
5:53 AM 68.0 °F 39.9 °F 36% 29.92 in 10.0 mi WSW 4.6 mph - N/A   Clear
6:53 AM 72.0 °F 42.1 °F 34% 29.94 in 10.0 mi WSW 6.9 mph - N/A   Clear
7:53 AM 79.0 °F 41.0 °F 26% 29.97 in 10.0 mi West 6.9 mph - N/A   Partly Cloudy
8:53 AM 86.0 °F 36.0 °F 17% 29.98 in 10.0 mi NW 11.5 mph - N/A   Partly Cloudy
9:53 AM 89.1 °F 39.0 °F 17% 29.98 in 10.0 mi NNW 12.7 mph - N/A   Partly Cloudy
10:53 AM 90.0 °F 37.0 °F 15% 29.99 in 10.0 mi North 13.8 mph - N/A   Partly Cloudy
11:53 AM 91.9 °F 37.9 °F 15% 29.99 in 10.0 mi NE 15.0 mph 25.3 mph N/A   Partly Cloudy
12:53 PM 93.0 °F 37.9 °F 15% 29.98 in 10.0 mi NNE 16.1 mph 24.2 mph N/A   Partly Cloudy
1:53 PM 93.9 °F 39.9 °F 15% 29.97 in 10.0 mi ENE 13.8 mph 20.7 mph N/A   Partly Cloudy
2:53 PM 95.0 °F 36.0 °F 13% 29.96 in 10.0 mi ENE 18.4 mph 23.0 mph N/A   Partly Cloudy
3:53 PM 95.0 °F 34.0 °F 12% 29.95 in 10.0 mi NNE 11.5 mph 21.9 mph N/A   Partly Cloudy
4:53 PM 95.0 °F 34.0 °F 12% 29.94 in 10.0 mi East 8.1 mph 16.1 mph N/A   Partly Cloudy
5:53 PM 93.9 °F 36.0 °F 13% 29.93 in 10.0 mi ENE 10.4 mph - N/A   Partly Cloudy
6:53 PM 91.0 °F 41.0 °F 17% 29.93 in 10.0 mi East 11.5 mph - N/A   Partly Cloudy
7:53 PM 86.0 °F 43.0 °F 22% 29.94 in 10.0 mi East 11.5 mph - N/A   Partly Cloudy
8:53 PM 80.1 °F 43.0 °F 27% 29.96 in 10.0 mi East 10.4 mph - N/A   Partly Cloudy
9:53 PM 75.0 °F 43.0 °F 32% 29.99 in 10.0 mi ESE 10.4 mph - N/A   Partly Cloudy
10:53 PM 73.9 °F 43.0 °F 33% 30.01 in 10.0 mi SE 10.4 mph - N/A   Scattered Clouds
11:53 PM 71.1 °F 44.1 °F 38% 30.02 in 10.0 mi SSE 11.5 mph - N/A   Scattered Clouds